Location: Biharia
(46.4333°N, 22.8000°E)
Time: 03:05:57
(UTC+00:00)

Cosmos 494 Rocket - Pass Details

Date: 25 May 2022
Orbit: 742 x 770 km, 74.1° (Epoch: 05 July)

Event Time Altitude Azimuth Distance (km) Brightness Sun altitude
Rises 23:29:03 0° 332° (NNW) 3,193 7.9 -21.0°
Reaches altitude 10° 23:31:31 10° 326° (NW) 2,264 6.9 -20.9°
Maximum altitude 23:36:19 43° 256° (WSW) 1,044 4.4 -20.6°
Enters shadow 23:37:07 40° 232° (SW) 1,095 4.4 -20.6°
